| time (UTC) | temp F | wind direction | speed MPH | gust MPH | rain 1hr in | rain 24hr in | rain mn in | humidity % | barometer mb |
| 20260505150849 | 56 | 169 | 0.0 | 0.0 | 0.00 | 0.00 | 0.00 | 53 | 1008.3 |
| 20260505130225 | 58 | 95 | 1.0 | 4.0 | 0.00 | 0.00 | 0.00 | 50 | 1008.4 |
| 20260505124141 | 59 | 78 | 1.0 | 0.0 | 0.00 | 0.00 | 0.00 | 49 | 1008.4 |
| 20260505123140 | 59 | 181 | 1.0 | 14.0 | 0.00 | 0.00 | 0.00 | 49 | 1008.6 |
| 20260505122150 | 58 | 55 | 3.0 | 14.0 | 0.00 | 0.00 | 0.00 | 49 | 1008.6 |
| 20260505121212 | 57 | 49 | 1.0 | 10.0 | 0.00 | 0.00 | 0.00 | 49 | 1008.8 |
| 20260505120225 | 58 | 203 | 0.0 | 7.0 | 0.00 | 0.00 | 0.00 | 50 | 1008.9 |
| 20260505115204 | 57 | 183 | 1.0 | 12.0 | 0.00 | 0.00 | 0.00 | 51 | 1008.9 |
| 20260505114131 | 57 | 109 | 0.0 | 5.0 | 0.00 | 0.00 | 0.00 | 52 | 1008.8 |
| 20260505113102 | 56 | 130 | 1.0 | 6.0 | 0.00 | 0.00 | 0.00 | 49 | 1009.0 |
| 20260505112034 | 56 | 130 | 0.0 | 0.0 | 0.00 | 0.00 | 0.00 | 51 | 1009.1 |
| 20260505111015 | 55 | 78 | 0.0 | 0.0 | 0.00 | 0.00 | 0.00 | 54 | 1009.2 |
| 20260505102036 | 53 | 63 | 0.0 | 3.0 | 0.00 | 0.00 | 0.00 | 57 | 1009.3 |
| 20260505101054 | 53 | 96 | 1.0 | 11.0 | 0.00 | 0.00 | 0.00 | 57 | 1009.4 |
| 20260505100025 | 53 | 142 | 1.0 | 11.0 | 0.00 | 0.00 | 0.00 | 57 | 1009.3 |
| 20260505095044 | 53 | 89 | 0.0 | 0.0 | 0.00 | 0.00 | 0.00 | 59 | 1009.2 |
| 20260505094102 | 54 | 190 | 0.0 | 0.0 | 0.00 | 0.00 | 0.00 | 61 | 1009.1 |
| 20260505093059 | 53 | 190 | 0.0 | 3.0 | 0.00 | 0.00 | 0.00 | 62 | 1009.0 |
| 20260505092035 | 53 | 93 | 2.0 | 13.0 | 0.00 | 0.00 | 0.00 | 62 | 1009.2 |
| 20260505091041 | 53 | 71 | 1.0 | 4.0 | 0.00 | 0.00 | 0.00 | 63 | 1009.2 |
| 20260505090014 | 52 | 84 | 3.0 | 15.0 | 0.00 | 0.00 | 0.00 | 66 | 1009.2 |
| 20260505084949 | 52 | 149 | 1.0 | 14.0 | 0.00 | 0.00 | 0.00 | 67 | 1009.4 |
| 20260505083957 | 52 | 76 | 1.0 | 13.0 | 0.00 | 0.00 | 0.00 | 65 | 1009.0 |
| 20260505083019 | 52 | 62 | 3.0 | 13.0 | 0.00 | 0.00 | 0.00 | 61 | 1009.1 |
| 20260505082013 | 53 | 103 | 1.0 | 10.0 | 0.00 | 0.00 | 0.00 | 59 | 1009.1 |
| 20260505075842 | 53 | 136 | 0.0 | 5.0 | 0.00 | 0.00 | 0.00 | 59 | 1009.2 |
| 20260505074818 | 54 | 80 | 0.0 | 6.0 | 0.00 | 0.00 | 0.00 | 60 | 1009.2 |
| 20260505073802 | 53 | 63 | 0.0 | 0.0 | 0.00 | 0.00 | 0.00 | 60 | 1009.2 |
| 20260505072726 | 53 | 103 | 0.0 | 0.0 | 0.00 | 0.00 | 0.00 | 60 | 1009.3 |
| 20260505071732 | 52 | 72 | 0.0 | 0.0 | 0.00 | 0.00 | 0.00 | 61 | 1009.5 |
| 20260505065554 | 52 | 119 | 0.0 | 0.0 | 0.00 | 0.00 | 0.00 | 61 | 1009.6 |
| 20260505064604 | 52 | 215 | 0.0 | 0.0 | 0.00 | 0.00 | 0.00 | 60 | 1009.6 |
| 20260505063531 | 52 | 267 | 0.0 | 7.0 | 0.00 | 0.00 | 0.00 | 60 | 1009.7 |
| 20260505062526 | 52 | 218 | 0.0 | 0.0 | 0.00 | 0.00 | 0.00 | 61 | 1009.6 |
| 20260505061502 | 51 | 257 | 0.0 | 1.0 | 0.00 | 0.00 | 0.00 | 61 | 1009.6 |
| 20260505060445 | 51 | 200 | 0.0 | 0.0 | 0.00 | 0.00 | 0.00 | 62 | 1009.6 |
| 20260505055438 | 50 | 242 | 0.0 | 0.0 | 0.00 | 0.00 | 0.00 | 63 | 1009.6 |
| 20260505054439 | 49 | 71 | 0.0 | 0.0 | 0.00 | 0.00 | 0.00 | 65 | 1009.6 |
| 20260505053443 | 49 | 281 | 0.0 | 0.0 | 0.00 | 0.00 | 0.00 | 65 | 1009.6 |
| 20260505052451 | 48 | 281 | 0.0 | 0.0 | 0.00 | 0.00 | 0.00 | 65 | 1009.4 |
| 20260505051456 | 48 | 281 | 0.0 | 0.0 | 0.00 | 0.00 | 0.00 | 64 | 1009.5 |
| 20260505050420 | 47 | 129 | 0.0 | 0.0 | 0.00 | 0.00 | 0.00 | 64 | 1009.7 |
| 20260505041257 | 47 | 355 | 0.0 | 0.0 | 0.00 | 0.00 | 0.00 | 61 | 1010.0 |
| 20260505040302 | 46 | 29 | 0.0 | 0.0 | 0.00 | 0.00 | 0.00 | 62 | 1010.1 |